Location: Newark
(35.8833°N, 14.5000°E)
Time: 15:43:20
(UTC+00:00)

Altair - Pass Details

Date: 27 November 2019
Orbit: 1502 x 1682 km, 47.2° (Epoch: 09 December)

Event Time Altitude Azimuth Distance (km) Brightness Sun altitude
Rises 04:51:28 0° 301° (WNW) 4,635 - -11.8°
Reaches altitude 10° 04:54:33 10° 305° (NW) 3,655 - -11.2°
Exits shadow 04:54:51 11° 306° (NW) 3,558 8.8 -11.1°
Maximum altitude 05:03:39 63° 26° (NNE) 1,668 7.7 -9.4°
Drops below altitude 10° 05:12:56 10° 107° (ESE) 3,732 11.3 -7.7°
Sets 05:16:06 0° 110° (ESE) 4,738 12.8 -7.1°
